Terminal Aerodrome Forecast
Issued by NWS

Home | Current Version | Previous Version | Text Only | Print | Product List | Glossary On
Versions: 1 2 3 4 5 6 7 8 9 10 11 12
000
FTUS45 KTFX 020500
TAFLWT
TAF
KLWT 020520Z 0206/0306 12005KT P6SM SCT250
     FM021800 12010KT P6SM SCT100=

USA.gov is the U.S. government's official web portal to all federal, state and local government web resources and services.